ECMWFNIL_925_temp_336.txt.gz
Temp
-8 -8 -8 -8 -8 -7 -7 -7 -7 -6 -6 -6 -5 -5 -4 -3 -2 -1 -1 -0 1 1 2 2 3 3 4 5 5 6 6 7 7 7 8 9 9 10 11 12 13 12
-9 -9 -9 -9 -8 -8 -8 -8 -7 -7 -6 -6 -6 -5 -5 -4 -3 -2 -2 -1 -0 1 1 2 2 3 3 4 4 5 5 6 6 7 7 8 8 9 10 10 11 12
-9 -9 -9 -9 -9 -8 -8 -8 -8 -7 -6 -6 -5 -5 -5 -4 -3 -3 -3 -2 -1 -0 0 1 1 2 3 3 4 4 5 5 6 6 6 7 7 8 8 9 9 10
-10 -10 -9 -9 -9 -9 -9 -8 -8 -7 -6 -6 -5 -5 -5 -4 -4 -4 -3 -3 -2 -1 -1 0 1 1 2 3 3 4 4 4 5 5 5 6 6 7 7 8 8 9
-10 -10 -10 -10 -10 -9 -9 -8 -8 -7 -7 -7 -6 -5 -5 -4 -4 -4 -4 -4 -3 -2 -2 -1 -0 0 1 2 2 3 3 4 4 4 5 5 5 6 6 7 7 8
-11 -11 -11 -10 -10 -10 -9 -9 -9 -8 -8 -7 -6 -6 -5 -5 -4 -5 -5 -4 -4 -3 -3 -2 -1 -1 0 1 2 2 3 3 3 4 4 4 5 5 5 6 6 6
-12 -11 -11 -11 -11 -10 -10 -10 -9 -9 -9 -8 -7 -6 -6 -5 -5 -5 -5 -5 -4 -4 -4 -3 -2 -2 -1 0 1 2 2 2 3 3 4 4 4 4 5 5 5 5
-12 -12 -12 -12 -11 -11 -11 -11 -10 -9 -9 -8 -7 -7 -7 -6 -6 -6 -6 -5 -5 -5 -4 -4 -3 -3 -2 -1 0 1 1 1 1 2 3 3 3 4 4 4 4 4
-13 -13 -12 -12 -12 -12 -12 -11 -11 -10 -9 -9 -8 -8 -7 -7 -7 -7 -6 -5 -5 -5 -5 -4 -4 -3 -2 -1 -0 0 -0 -0 0 1 2 3 3 3 3 4 4 4
-13 -13 -13 -13 -13 -13 -12 -12 -12 -11 -10 -9 -9 -8 -8 -8 -8 -7 -6 -6 -5 -5 -5 -5 -5 -4 -3 -2 -1 -1 -1 -1 -1 -0 1 2 2 3 3 3 3 3
-14 -14 -14 -14 -14 -14 -13 -13 -12 -12 -11 -10 -9 -9 -8 -8 -8 -8 -7 -7 -6 -6 -6 -6 -5 -5 -4 -3 -2 -2 -2 -2 -2 -1 -0 1 1 2 2 3 3 3
-15 -15 -15 -15 -14 -14 -14 -14 -13 -13 -11 -10 -10 -10 -9 -9 -9 -9 -9 -8 -8 -7 -7 -7 -6 -5 -5 -4 -3 -3 -4 -3 -3 -2 -1 -0 0 1 2 2 2 3
-15 -15 -15 -15 -15 -15 -15 -15 -14 -14 -13 -12 -11 -11 -11 -11 -10 -10 -10 -9 -9 -8 -8 -7 -7 -6 -5 -4 -4 -4 -4 -4 -4 -3 -2 -1 -1 0 1 1 2 2
-16 -16 -16 -16 -16 -16 -16 -15 -15 -15 -14 -13 -12 -12 -12 -12 -11 -11 -11 -10 -9 -9 -9 -8 -8 -7 -6 -5 -5 -5 -5 -5 -4 -4 -3 -2 -1 -1 0 1 1 1
-17 -17 -16 -16 -17 -16 -16 -16 -16 -16 -15 -14 -14 -14 -13 -12 -12 -12 -11 -10 -10 -10 -9 -9 -9 -8 -7 -6 -6 -5 -5 -5 -5 -4 -4 -3 -2 -1 -0 0 1 0
-17 -17 -17 -17 -17 -17 -17 -17 -17 -16 -16 -16 -15 -15 -14 -13 -13 -12 -12 -12 -11 -11 -10 -10 -10 -9 -8 -7 -7 -6 -6 -6 -5 -5 -4 -4 -3 -2 -1 -0 -0 -0
-18 -18 -18 -18 -18 -18 -18 -18 -18 -17 -17 -17 -16 -16 -15 -15 -14 -13 -13 -13 -12 -12 -11 -11 -10 -10 -9 -8 -8 -7 -6 -6 -6 -5 -5 -4 -3 -3 -2 -1 -1 -1
-18 -18 -19 -19 -19 -19 -18 -18 -18 -18 -18 -17 -17 -17 -16 -16 -15 -15 -14 -14 -13 -13 -12 -12 -11 -11 -10 -9 -9 -8 -7 -7 -6 -6 -6 -5 -4 -3 -3 -2 -2 -2
-19 -19 -19 -19 -19 -19 -19 -19 -19 -19 -18 -18 -18 -17 -17 -17 -17 -16 -15 -15 -15 -14 -13 -13 -12 -11 -10 -10 -9 -8 -8 -7 -7 -7 -6 -6 -5 -4 -3 -3 -2 -2
-19 -20 -20 -20 -20 -20 -20 -20 -19 -19 -19 -19 -18 -18 -18 -18 -17 -17 -16 -16 -16 -15 -15 -13 -12 -11 -11 -11 -10 -9 -8 -8 -8 -7 -7 -6 -6 -5 -4 -3 -3 -2
-20 -21 -21 -21 -21 -21 -20 -20 -20 -20 -19 -19 -19 -19 -19 -18 -18 -18 -17 -17 -17 -17 -16 -15 -13 -12 -12 -11 -11 -10 -9 -9 -8 -8 -7 -7 -6 -6 -5 -4 -3 -2
-21 -21 -21 -21 -21 -21 -21 -21 -20 -20 -20 -20 -20 -20 -19 -19 -19 -19 -18 -18 -18 -17 -17 -16 -15 -13 -12 -12 -11 -11 -10 -9 -9 -9 -8 -8 -7 -6 -6 -5 -3 -3
-22 -22 -22 -22 -22 -22 -21 -21 -21 -21 -21 -21 -20 -20 -20 -20 -20 -19 -19 -19 -18 -17 -17 -17 -15 -14 -13 -12 -12 -11 -10 -10 -9 -9 -8 -8 -7 -6 -6 -5 -4 -3
-23 -23 -23 -23 -22 -22 -22 -22 -21 -21 -21 -21 -21 -21 -21 -20 -20 -20 -19 -19 -18 -18 -18 -17 -16 -15 -14 -13 -13 -12 -11 -10 -10 -9 -9 -8 -8 -7 -6 -5 -5 -4
-24 -24 -23 -23 -23 -23 -22 -22 -22 -22 -22 -22 -22 -22 -21 -21 -21 -20 -20 -19 -18 -18 -18 -18 -17 -15 -14 -14 -13 -12 -12 -11 -10 -10 -9 -9 -8 -7 -6 -6 -5 -4
-25 -24 -24 -24 -24 -23 -23 -23 -23 -23 -23 -23 -23 -22 -22 -22 -21 -21 -21 -19 -18 -18 -17 -17 -17 -16 -15 -14 -14 -13 -12 -11 -11 -10 -10 -9 -8 -8 -7 -6 -5 -5

ECMWFNIL_925_temp_342.txt.gz
Temp
-10 -10 -10 -11 -11 -11 -10 -10 -10 -9 -9 -10 -9 -8 -8 -6 -5 -4 -3 -3 -2 -2 -2 -2 -1 -1 -0 0 0 1 1 1 2 2 3 4 4 4 5 5 5 6
-10 -10 -10 -10 -10 -10 -10 -10 -10 -9 -9 -9 -8 -8 -7 -6 -5 -5 -4 -3 -2 -2 -2 -2 -2 -2 -1 -1 -1 -0 0 0 1 1 2 2 3 3 4 4 4 5
-10 -10 -10 -10 -10 -10 -9 -9 -9 -9 -9 -8 -7 -8 -7 -6 -5 -5 -4 -4 -3 -2 -2 -2 -2 -2 -2 -2 -2 -1 -1 -1 -1 0 0 1 2 2 3 3 3 4
-11 -10 -10 -10 -11 -10 -9 -8 -8 -8 -8 -8 -7 -7 -7 -6 -6 -5 -4 -4 -4 -3 -3 -3 -3 -3 -3 -3 -3 -2 -2 -3 -3 -1 -1 -0 0 1 1 2 3 3
-11 -11 -10 -10 -10 -10 -9 -9 -9 -8 -8 -8 -8 -7 -7 -6 -7 -6 -5 -5 -4 -4 -4 -3 -4 -4 -4 -4 -4 -4 -4 -4 -4 -3 -2 -2 -1 -1 -0 1 2 2
-12 -12 -11 -11 -11 -10 -10 -10 -10 -9 -9 -9 -8 -8 -7 -7 -8 -7 -6 -6 -5 -5 -5 -4 -4 -4 -4 -5 -5 -5 -5 -5 -5 -4 -4 -3 -2 -2 -1 -1 0 1
-13 -13 -12 -12 -12 -11 -11 -11 -10 -10 -10 -9 -8 -8 -8 -8 -8 -8 -7 -8 -7 -6 -6 -5 -5 -5 -5 -6 -6 -6 -6 -6 -6 -5 -5 -5 -4 -3 -2 -2 -1 -0
-14 -13 -13 -13 -13 -12 -12 -12 -11 -11 -10 -10 -9 -9 -9 -9 -9 -8 -8 -8 -8 -7 -7 -6 -6 -6 -6 -6 -7 -7 -7 -7 -6 -6 -6 -5 -5 -4 -4 -3 -2 -2
-14 -14 -14 -14 -14 -13 -13 -14 -13 -12 -11 -11 -11 -10 -10 -10 -10 -9 -8 -9 -8 -8 -8 -7 -7 -7 -7 -7 -8 -8 -8 -8 -7 -7 -6 -6 -6 -5 -5 -4 -3 -3
-15 -15 -15 -15 -15 -15 -15 -15 -13 -13 -12 -12 -12 -11 -11 -11 -11 -10 -10 -10 -9 -9 -9 -8 -8 -8 -7 -8 -9 -9 -9 -8 -8 -7 -7 -7 -6 -6 -6 -5 -4 -4
-16 -16 -16 -16 -16 -15 -16 -15 -14 -14 -14 -13 -14 -13 -13 -13 -12 -11 -12 -11 -10 -10 -10 -9 -9 -8 -8 -8 -9 -10 -9 -9 -9 -8 -8 -7 -7 -7 -6 -6 -5 -5
-17 -17 -17 -17 -17 -17 -16 -16 -15 -15 -15 -15 -15 -15 -15 -14 -13 -13 -13 -13 -12 -12 -11 -10 -9 -9 -9 -9 -10 -10 -10 -10 -9 -9 -8 -8 -8 -7 -7 -7 -6 -6
-18 -18 -18 -18 -18 -18 -18 -17 -16 -15 -16 -16 -16 -17 -16 -16 -15 -15 -14 -14 -13 -13 -12 -11 -11 -10 -10 -11 -11 -11 -10 -10 -9 -9 -9 -9 -8 -8 -8 -7 -7 -6
-19 -19 -19 -19 -19 -19 -19 -18 -17 -17 -17 -16 -17 -17 -17 -17 -17 -16 -15 -15 -14 -14 -13 -13 -12 -11 -10 -12 -12 -12 -11 -10 -10 -10 -10 -9 -9 -9 -8 -8 -7 -7
-19 -20 -20 -20 -20 -20 -19 -19 -19 -19 -18 -17 -18 -18 -18 -18 -18 -17 -17 -17 -16 -15 -14 -14 -13 -12 -12 -13 -13 -12 -11 -11 -10 -10 -10 -10 -10 -9 -9 -8 -8 -7
-20 -20 -20 -20 -21 -20 -20 -20 -20 -20 -19 -19 -19 -19 -18 -18 -18 -17 -18 -18 -17 -17 -16 -15 -14 -13 -13 -14 -13 -12 -11 -11 -11 -11 -11 -11 -10 -10 -9 -9 -8 -8
-21 -21 -21 -21 -21 -21 -21 -21 -21 -21 -20 -20 -20 -20 -19 -19 -19 -18 -19 -18 -18 -18 -18 -17 -16 -14 -14 -15 -14 -12 -12 -11 -11 -11 -11 -11 -11 -10 -10 -10 -9 -8
-21 -22 -22 -22 -21 -21 -21 -21 -21 -21 -21 -21 -21 -20 -20 -20 -20 -20 -19 -19 -19 -19 -18 -18 -17 -15 -15 -15 -14 -13 -13 -12 -12 -12 -11 -11 -11 -11 -11 -11 -10 -9
-22 -22 -22 -22 -21 -21 -21 -22 -22 -22 -22 -22 -22 -21 -21 -21 -21 -21 -20 -20 -20 -19 -19 -19 -17 -16 -16 -16 -15 -14 -13 -12 -12 -12 -12 -12 -12 -12 -12 -11 -11 -10
-22 -23 -22 -22 -22 -22 -22 -22 -22 -22 -22 -22 -22 -22 -22 -22 -22 -21 -21 -21 -21 -20 -20 -20 -18 -17 -17 -17 -16 -15 -14 -13 -13 -13 -13 -13 -13 -13 -12 -12 -11 -11
-23 -23 -22 -22 -22 -22 -23 -23 -23 -23 -22 -22 -23 -23 -22 -22 -22 -22 -22 -22 -22 -22 -21 -21 -19 -18 -18 -17 -16 -15 -14 -14 -14 -14 -14 -14 -13 -13 -13 -12 -12 -11
-23 -23 -23 -23 -23 -23 -23 -23 -24 -24 -23 -23 -23 -23 -22 -23 -23 -23 -23 -22 -22 -22 -22 -21 -20 -19 -19 -18 -17 -16 -15 -14 -14 -14 -14 -14 -13 -13 -13 -12 -12 -11
-23 -23 -24 -23 -23 -24 -24 -24 -24 -24 -24 -24 -24 -23 -23 -23 -23 -23 -23 -22 -22 -22 -22 -22 -20 -19 -19 -19 -18 -16 -15 -15 -15 -14 -14 -14 -14 -13 -13 -12 -12 -12
-23 -24 -24 -24 -24 -24 -25 -25 -24 -24 -24 -24 -24 -24 -24 -23 -23 -23 -23 -23 -23 -22 -22 -22 -21 -19 -19 -19 -18 -17 -16 -15 -15 -15 -15 -14 -14 -14 -13 -13 -12 -12
-24 -24 -24 -24 -24 -25 -25 -25 -25 -24 -24 -24 -25 -25 -24 -24 -24 -24 -23 -23 -23 -23 -23 -23 -22 -20 -19 -20 -19 -17 -16 -16 -16 -15 -15 -15 -14 -14 -13 -13 -12 -12
-24 -24 -24 -24 -25 -25 -25 -25 -24 -24 -24 -24 -25 -25 -24 -24 -24 -24 -24 -24 -23 -23 -23 -23 -22 -21 -21 -20 -20 -18 -17 -16 -16 -16 -15 -15 -14 -14 -13 -13 -12 -12

ECMWFNIL_925_temp_348.txt.gz
Temp
-8 -9 -9 -9 -10 -10 -10 -9 -9 -9 -8 -8 -8 -8 -8 -7 -7 -7 -6 -6 -5 -5 -5 -4 -4 -3 -3 -2 -2 -3 -4 -3 -4 -3 -3 -3 -3 -2 -2 -1 -1 -1
-8 -9 -9 -9 -9 -9 -10 -10 -10 -9 -9 -9 -8 -8 -8 -7 -7 -7 -7 -7 -6 -6 -5 -5 -4 -4 -4 -3 -3 -3 -3 -3 -4 -4 -4 -4 -4 -3 -3 -3 -2 -2
-9 -9 -9 -9 -10 -9 -9 -9 -10 -10 -9 -9 -9 -8 -8 -8 -7 -7 -7 -7 -7 -6 -6 -6 -5 -5 -5 -4 -4 -4 -4 -4 -4 -4 -4 -5 -5 -5 -4 -4 -3 -3
-9 -9 -9 -10 -10 -10 -10 -10 -10 -10 -9 -10 -10 -9 -9 -9 -8 -8 -8 -7 -7 -7 -7 -7 -7 -6 -5 -5 -5 -5 -5 -5 -4 -5 -4 -5 -5 -5 -5 -5 -4 -3
-10 -10 -10 -10 -10 -10 -10 -10 -10 -10 -10 -10 -10 -10 -10 -9 -9 -8 -8 -8 -8 -8 -8 -7 -7 -7 -6 -6 -6 -5 -5 -5 -6 -6 -6 -6 -6 -6 -6 -6 -5 -5
-10 -10 -10 -10 -10 -11 -11 -11 -11 -11 -10 -11 -10 -10 -11 -10 -10 -10 -9 -9 -9 -9 -8 -8 -8 -8 -7 -7 -7 -6 -7 -6 -7 -8 -8 -8 -7 -6 -6 -6 -6 -6
-11 -11 -11 -11 -11 -11 -11 -11 -12 -12 -11 -11 -11 -11 -11 -11 -10 -11 -10 -10 -10 -9 -9 -9 -9 -9 -8 -8 -8 -7 -8 -9 -9 -10 -10 -9 -9 -8 -7 -7 -7 -7
-12 -12 -12 -12 -11 -12 -12 -12 -12 -12 -12 -12 -12 -11 -12 -11 -11 -12 -11 -11 -11 -10 -10 -10 -10 -10 -9 -9 -9 -9 -10 -11 -11 -11 -11 -10 -10 -9 -9 -9 -8 -8
-12 -12 -12 -13 -12 -13 -13 -13 -13 -13 -13 -13 -12 -12 -12 -12 -13 -12 -12 -12 -12 -11 -11 -11 -11 -11 -11 -11 -11 -11 -12 -13 -12 -12 -11 -11 -11 -10 -10 -10 -9 -9
-12 -13 -13 -13 -13 -14 -14 -14 -14 -14 -14 -14 -13 -13 -13 -13 -14 -13 -13 -13 -12 -12 -12 -12 -11 -11 -11 -11 -12 -13 -14 -13 -12 -12 -12 -11 -11 -11 -11 -10 -10 -10
-13 -13 -13 -13 -14 -14 -15 -15 -15 -15 -15 -15 -14 -14 -14 -13 -14 -14 -14 -14 -14 -14 -13 -13 -12 -12 -12 -12 -13 -14 -14 -13 -12 -12 -12 -12 -12 -11 -11 -11 -11 -10
-13 -13 -14 -14 -15 -15 -15 -15 -16 -16 -16 -16 -16 -15 -14 -14 -14 -14 -15 -15 -15 -15 -15 -14 -13 -13 -13 -13 -14 -15 -14 -13 -13 -12 -12 -12 -12 -12 -12 -11 -11 -11
-14 -14 -15 -15 -16 -16 -16 -16 -16 -17 -17 -17 -16 -16 -16 -16 -15 -15 -15 -15 -15 -15 -15 -14 -14 -13 -13 -14 -15 -15 -14 -13 -13 -12 -12 -12 -12 -12 -12 -12 -12 -11
-15 -15 -16 -16 -16 -17 -17 -17 -17 -17 -17 -17 -17 -17 -18 -17 -17 -17 -16 -15 -16 -16 -15 -15 -15 -14 -14 -15 -16 -15 -14 -13 -13 -13 -13 -12 -12 -12 -12 -12 -12 -12
-16 -16 -17 -17 -17 -18 -18 -18 -18 -18 -18 -18 -18 -18 -19 -18 -18 -18 -17 -17 -17 -16 -15 -15 -15 -14 -15 -16 -16 -14 -14 -13 -13 -13 -13 -13 -12 -12 -12 -13 -13 -13
-17 -17 -18 -18 -18 -19 -19 -18 -19 -19 -19 -19 -19 -19 -19 -19 -19 -19 -18 -19 -18 -17 -16 -16 -16 -15 -16 -17 -16 -14 -14 -14 -13 -13 -13 -13 -13 -13 -13 -13 -13 -13
-18 -19 -19 -19 -19 -20 -20 -19 -19 -19 -19 -19 -20 -20 -19 -20 -20 -20 -20 -20 -19 -19 -18 -17 -16 -15 -16 -17 -16 -15 -14 -14 -14 -14 -13 -13 -14 -14 -14 -14 -14 -14
-19 -19 -20 -20 -20 -20 -20 -20 -20 -20 -20 -20 -21 -20 -20 -20 -20 -20 -21 -20 -20 -20 -19 -17 -17 -16 -16 -17 -17 -15 -15 -14 -14 -14 -14 -14 -14 -14 -15 -14 -14 -14
-19 -20 -20 -20 -21 -21 -21 -21 -21 -21 -21 -21 -21 -21 -21 -21 -21 -21 -21 -20 -20 -20 -19 -18 -17 -16 -17 -18 -17 -16 -15 -14 -14 -15 -15 -15 -15 -15 -15 -15 -14 -14
-20 -20 -20 -21 -21 -21 -21 -21 -21 -22 -22 -22 -22 -22 -21 -21 -21 -22 -21 -21 -21 -21 -21 -19 -17 -17 -19 -19 -17 -16 -15 -15 -15 -15 -16 -16 -16 -16 -15 -15 -15 -15
-21 -21 -21 -21 -21 -22 -22 -22 -22 -22 -22 -23 -23 -22 -22 -22 -22 -22 -22 -21 -21 -21 -21 -20 -18 -18 -20 -19 -18 -17 -16 -15 -16 -16 -16 -16 -16 -16 -16 -16 -16 -15
-21 -22 -22 -22 -22 -22 -22 -22 -23 -23 -23 -23 -23 -23 -23 -23 -22 -22 -22 -21 -21 -21 -22 -21 -19 -19 -20 -20 -18 -17 -16 -16 -17 -17 -16 -16 -16 -16 -16 -16 -16 -16
-22 -22 -22 -22 -22 -23 -23 -23 -23 -23 -23 -24 -24 -24 -24 -23 -23 -23 -22 -22 -22 -21 -22 -23 -20 -19 -20 -20 -19 -18 -17 -17 -17 -17 -17 -17 -17 -17 -17 -17 -16 -16
-22 -22 -23 -23 -23 -23 -23 -23 -23 -23 -24 -24 -24 -24 -25 -24 -24 -23 -23 -22 -22 -22 -22 -23 -22 -20 -20 -20 -20 -18 -17 -17 -17 -17 -17 -17 -17 -17 -17 -16 -16 -15
-22 -22 -23 -23 -23 -24 -24 -24 -24 -24 -24 -24 -24 -24 -25 -24 -23 -24 -24 -23 -23 -23 -23 -23 -23 -21 -20 -20 -20 -19 -17 -17 -17 -17 -17 -17 -17 -16 -16 -16 -15 -15
-22 -22 -23 -23 -23 -24 -24 -24 -24 -24 -24 -24 -24 -24 -24 -24 -23 -24 -25 -24 -23 -23 -23 -23 -23 -22 -20 -20 -20 -19 -18 -17 -17 -17 -17 -17 -16 -16 -16 -15 -15 -15

ECMWFNIL_925_temp_354.txt.gz
Temp
-8 -9 -9 -10 -10 -10 -10 -10 -10 -10 -10 -10 -10 -10 -10 -9 -9 -8 -8 -8 -8 -8 -7 -7 -7 -7 -6 -6 -6 -5 -5 -5 -5 -5 -4 -5 -6 -5 -5 -5 -5 -5
-9 -9 -9 -10 -10 -10 -10 -10 -10 -10 -10 -11 -11 -10 -10 -9 -9 -9 -9 -8 -8 -8 -8 -8 -8 -8 -7 -7 -7 -6 -7 -6 -6 -6 -6 -6 -6 -6 -6 -6 -5 -5
-9 -9 -9 -10 -10 -10 -10 -10 -11 -11 -11 -11 -11 -11 -10 -10 -10 -10 -10 -9 -9 -9 -9 -9 -9 -8 -8 -8 -8 -8 -8 -8 -8 -7 -7 -7 -7 -7 -7 -6 -6 -6
-9 -10 -10 -10 -10 -10 -10 -10 -11 -11 -11 -11 -11 -11 -11 -11 -11 -10 -10 -10 -10 -10 -10 -10 -10 -9 -9 -9 -8 -9 -9 -9 -9 -9 -9 -8 -8 -8 -8 -7 -7 -7
-10 -10 -10 -10 -10 -10 -11 -11 -11 -11 -11 -12 -12 -12 -12 -12 -12 -12 -12 -11 -11 -11 -11 -11 -10 -10 -10 -10 -10 -10 -10 -10 -10 -10 -10 -9 -9 -9 -8 -8 -8 -7
-10 -10 -10 -11 -11 -11 -11 -11 -11 -11 -12 -12 -12 -13 -13 -13 -13 -13 -13 -13 -12 -12 -12 -12 -11 -11 -11 -11 -11 -11 -11 -11 -11 -11 -11 -10 -10 -10 -9 -9 -9 -8
-11 -11 -11 -11 -11 -12 -12 -12 -12 -12 -12 -13 -13 -13 -13 -13 -14 -14 -14 -14 -14 -14 -14 -13 -13 -13 -12 -12 -12 -12 -12 -12 -12 -12 -11 -11 -11 -10 -10 -10 -9 -9
-11 -11 -11 -12 -12 -12 -13 -13 -13 -13 -13 -14 -14 -14 -14 -14 -14 -14 -14 -15 -15 -15 -15 -14 -14 -14 -13 -13 -13 -13 -13 -13 -12 -12 -12 -11 -11 -11 -11 -10 -10 -10
-12 -12 -12 -12 -13 -13 -13 -13 -14 -14 -14 -14 -15 -15 -15 -15 -15 -15 -15 -15 -15 -15 -15 -15 -15 -15 -14 -14 -14 -14 -14 -13 -13 -13 -12 -12 -12 -11 -11 -11 -11 -11
-12 -12 -12 -13 -13 -14 -14 -14 -14 -14 -15 -15 -15 -16 -16 -16 -16 -16 -16 -16 -16 -16 -16 -15 -15 -15 -15 -15 -15 -14 -14 -14 -13 -13 -13 -12 -12 -12 -12 -12 -11 -11
-12 -12 -13 -13 -13 -14 -14 -14 -14 -15 -15 -16 -16 -16 -16 -16 -17 -17 -16 -16 -16 -16 -16 -16 -16 -16 -16 -15 -15 -15 -15 -14 -14 -13 -13 -13 -13 -12 -12 -12 -12 -11
-13 -13 -13 -13 -14 -14 -14 -15 -15 -15 -16 -16 -16 -16 -17 -17 -17 -17 -17 -17 -17 -17 -17 -17 -16 -16 -16 -16 -16 -15 -15 -14 -14 -13 -13 -13 -13 -13 -12 -12 -12 -12
-13 -13 -13 -14 -14 -15 -15 -15 -16 -16 -16 -16 -17 -17 -17 -18 -18 -18 -18 -17 -17 -17 -17 -17 -17 -16 -16 -16 -16 -16 -15 -14 -14 -14 -13 -13 -13 -13 -13 -13 -12 -12
-13 -14 -14 -15 -15 -15 -16 -16 -17 -17 -17 -17 -17 -17 -18 -18 -18 -18 -18 -18 -18 -18 -17 -17 -17 -17 -17 -17 -17 -16 -15 -14 -14 -14 -14 -13 -13 -13 -13 -13 -13 -13
-14 -14 -14 -15 -16 -16 -17 -17 -17 -17 -17 -18 -18 -18 -18 -18 -18 -18 -18 -18 -18 -18 -18 -18 -17 -17 -17 -17 -17 -16 -15 -14 -14 -14 -14 -14 -13 -13 -13 -13 -13 -13
-14 -14 -15 -16 -16 -17 -17 -17 -18 -18 -18 -18 -19 -19 -19 -19 -19 -19 -19 -19 -19 -18 -18 -18 -18 -17 -17 -17 -17 -15 -15 -14 -14 -14 -14 -14 -14 -14 -14 -14 -13 -13
-14 -15 -15 -16 -17 -17 -17 -18 -18 -18 -19 -19 -19 -19 -19 -19 -19 -19 -19 -20 -19 -19 -19 -18 -18 -17 -17 -17 -17 -15 -15 -15 -14 -14 -14 -14 -14 -14 -14 -14 -14 -14
-15 -15 -16 -16 -17 -17 -18 -18 -18 -19 -19 -20 -20 -20 -20 -20 -20 -20 -20 -20 -20 -20 -19 -19 -18 -17 -17 -17 -17 -16 -15 -15 -14 -14 -15 -15 -15 -15 -15 -15 -14 -14
-15 -15 -16 -17 -17 -18 -18 -18 -18 -19 -20 -20 -20 -20 -20 -20 -20 -20 -20 -20 -20 -20 -20 -19 -18 -17 -17 -17 -17 -16 -16 -15 -15 -15 -15 -15 -15 -15 -15 -15 -15 -15
-15 -16 -16 -17 -18 -18 -18 -19 -19 -19 -20 -20 -20 -20 -21 -21 -21 -21 -21 -20 -20 -21 -20 -19 -18 -17 -18 -18 -17 -17 -16 -15 -15 -16 -16 -16 -16 -16 -16 -15 -15 -15
-16 -16 -17 -17 -18 -18 -18 -19 -19 -20 -20 -21 -21 -21 -21 -21 -21 -21 -21 -21 -20 -21 -20 -20 -18 -18 -18 -18 -18 -17 -16 -16 -16 -17 -16 -16 -16 -16 -16 -16 -16 -15
-16 -17 -17 -18 -18 -19 -19 -19 -20 -20 -21 -21 -21 -21 -21 -21 -21 -21 -21 -21 -20 -21 -21 -20 -19 -18 -18 -19 -18 -17 -17 -17 -17 -17 -17 -16 -16 -16 -16 -16 -16 -15
-16 -17 -17 -18 -19 -19 -19 -20 -20 -21 -21 -21 -21 -22 -22 -22 -22 -21 -21 -21 -20 -20 -21 -21 -19 -18 -18 -19 -19 -18 -17 -17 -17 -17 -17 -17 -16 -16 -16 -16 -16 -15
-16 -17 -18 -18 -19 -19 -20 -20 -21 -21 -21 -21 -21 -22 -22 -22 -22 -21 -21 -21 -21 -21 -21 -21 -20 -19 -19 -19 -19 -18 -18 -17 -17 -17 -17 -17 -16 -16 -16 -16 -15 -15
-17 -17 -18 -19 -19 -20 -20 -20 -21 -21 -21 -21 -21 -22 -22 -22 -22 -22 -21 -21 -21 -21 -21 -21 -20 -20 -19 -19 -19 -19 -18 -18 -17 -17 -17 -17 -16 -16 -16 -15 -15 -15
-17 -17 -18 -19 -19 -20 -20 -21 -21 -21 -21 -22 -22 -22 -22 -22 -22 -22 -22 -21 -21 -21 -21 -21 -21 -21 -20 -19 -20 -19 -18 -18 -17 -17 -17 -17 -16 -16 -15 -15 -15 -15